Regional Weather Roundup
Issued by NWS

Home | Current Version | Previous Version | Text Only | Print | Product List | Glossary On
Versions: 1 2 3 4 5 6 7 8 9 10 11 12 13 14 15 16 17 18 19 20 21 22 23 24 25 26 27 28 29 30 31 32 33 34 35 36 37 38 39 40 41 42 43 44 45 46 47 48 49 50
000
ASUS43 KLSX 290407
RWRMO

WEATHER SUMMARY FOR MISSOURI
NATIONAL WEATHER SERVICE SPRINGFIELD MO
1100 PM CDT SAT MAY 28 2016

NOTE: "FAIR" INDICATES FEW OR NO CLOUDS BELOW 12,000 FEET WITH NO
       SIGNIFICANT WEATHER AND/OR OBSTRUCTIONS TO VISIBILITY.
       CURRENT SKY AND/OR WEATHER CONDITIONS ARE NOT AVAILABLE FOR
       CHILLICOTHE AND FARMINGTON.

MOZ001>031-035>038-043-044-053-054-290500-
...NORTHERN AND WESTERN MISSOURI...

CITY           SKY/WX    TMP DP  RH WIND       PRES   REMARKS
KANSAS CTY INT CLEAR     65  59  81 SW6       30.00R
KANSAS C DTWN  CLEAR     70  59  68 SW5       29.99R
LEE`S SUMMIT   CLEAR     67  60  78 S5        30.02R
ST JOSEPH      CLEAR     67  61  81 SW7       29.98R
CHILLICOTHE      N/A     64  61  90 S3        29.99R
KIRKSVILLE     CLEAR     64  58  80 SW6       29.99R

$$
MOZ066>068-077>081-088>096-101>105-290500-
...SOUTHWEST MISSOURI...

CITY           SKY/WX    TMP DP  RH WIND       PRES   REMARKS
SPRINGFIELD    CLEAR     65  60  84 SW5       30.04R
JOPLIN         CLEAR     67  63  87 S5        30.03R

$$
MOZ032>034-039>042-045>050-055>058-069>072-290500-
...CENTRAL MISSOURI...

CITY           SKY/WX    TMP DP  RH WIND       PRES   REMARKS
COLUMBIA       CLEAR     70  62  76 W7        30.01R
JEFFERSON CITY CLEAR     72  62  71 E3        30.00R
ROLLA          MOCLDY    65  62  90 SE3       30.02R
SEDALIA        CLEAR     70  62  76 SW3       30.02R
WARRENSBURG    CLEAR     66  61  82 CALM      30.02R

$$
MOZ051-052-059>065-290500-
...EAST CENTRAL MISSOURI...

CITY           SKY/WX    TMP DP  RH WIND       PRES   REMARKS
ST LOUIS INTL  CLOUDY    77  65  66 SW10      29.98S
SPIRIT OF STL  CLOUDY    72  61  68 W6        29.98R
ST CHARLES     CLOUDY    76  60  57 W13       29.98R

$$
MOZ072>076-082>087-097>100-106>115-290500-
...SOUTH CENTRAL AND SOUTHEAST MISSOURI...

CITY           SKY/WX    TMP DP  RH WIND       PRES   REMARKS
CAPE GIRARDEAU CLOUDY    73  68  84 S3        30.04R
FARMINGTON     PTCLDY    69  66  90 CALM      30.06R
POPLAR BLUFF   CLEAR     73  68  84 S5        30.03R
WEST PLAINS    CLEAR     72  65  78 S7        30.06R

$$



USA.gov is the U.S. government's official web portal to all federal, state and local government web resources and services.